This is the latest recevied weather packets stored in our database for station/object KC2TER. If no packets are shown the sender has not sent any weather packets the latest 10 day(s).
| Time | Temp. | Humidity | Pressure | Rain* | Wind** | Luminosity | Snow |
|---|---|---|---|---|---|---|---|
| 1777675863 | 12.78° C | 74% | 1010.8 hPa | 0 mm | - | 31 W/m² | - |
| 1777675561 | 13.33° C | 74% | 1011 hPa | 0 mm | - | 33 W/m² | - |
| 1777675258 | 13.33° C | 74% | 1010.9 hPa | 0 mm | - | 35 W/m² | - |
| 1777674954 | 13.33° C | 73% | 1011 hPa | 0 mm | - | 36 W/m² | - |
| 1777674650 | 13.33° C | 73% | 1010.9 hPa | 0 mm | - | 39 W/m² | - |
| 1777674358 | 13.89° C | 72% | 1011.1 hPa | 0 mm | - | 40 W/m² | - |
| 1777674045 | 13.89° C | 71% | 1011.1 hPa | 0 mm | - | 42 W/m² | - |
| 1777673740 | 13.89° C | 71% | 1011.1 hPa | 0 mm | - | 44 W/m² | - |
| 1777673438 | 14.44° C | 70% | 1011 hPa | 0 mm | - | 46 W/m² | - |
| 1777673136 | 14.44° C | 71% | 1011.1 hPa | 0 mm | - | 48 W/m² | - |
| 1777672832 | 14.44° C | 69% | 1011.3 hPa | 0 mm | - | 50 W/m² | - |
| 1777672528 | 15° C | 68% | 1011.2 hPa | 0 mm | - | 51 W/m² | - |
| 1777672224 | 14.44° C | 69% | 1011.1 hPa | 0 mm | - | 52 W/m² | - |
| 1777671919 | 15° C | 67% | 1011 hPa | 0 mm | - | 53 W/m² | - |
| 1777671615 | 15° C | 67% | 1011.2 hPa | 0 mm | - | 68 W/m² | - |
| 1777671313 | 15° C | 68% | 1011.1 hPa | 0 mm | - | 57 W/m² | - |
| 1777671009 | 15° C | 69% | 1011.2 hPa | 0 mm | - | 58 W/m² | - |
| 1777670704 | 15.56° C | 68% | 1011.1 hPa | 0 mm | - | 59 W/m² | - |
| 1777670402 | 15.56° C | 66% | 1011.2 hPa | 0 mm | - | 62 W/m² | - |
| 1777670099 | 16.11° C | 66% | 1011.1 hPa | 0 mm | - | 138 W/m² | - |
| 1777669796 | 16.11° C | 65% | 1011 hPa | 0 mm | - | 64 W/m² | - |
| 1777669492 | 16.11° C | 66% | 1011.1 hPa | 0 mm | - | 66 W/m² | - |
| 1777669189 | 16.67° C | 63% | 1011.1 hPa | 0 mm | - | 259 W/m² | - |
| 1777668886 | 16.11° C | 64% | 1011.1 hPa | 0 mm | - | 279 W/m² | - |
| 1777668583 | 16.11° C | 64% | 1010.9 hPa | 0 mm | - | 300 W/m² | - |
* Rain latest hour (hover to see other rain measurements)
** Current wind speed in m/s (hover to see current wind gust speed)